BEL4HJ EBBR-EDDH

Flight info

Callsign BEL4HJ
Flight time 1h 2m
Altitude 37000
Route NIK DCT NEPTU DCT TENLI DCT RIBSO RIBSO7A
Aircraft A320/M-DE3FGHIJ1LORVWY/H

Departure

Time 2026-05-07 19:41
Airport Brussels Airport (EBBR)

Arrival

Time 2026-05-07 20:43
Airport Hamburg Helmut Schmidt Airport (EDDH)
Time Latitude Longitude Altitude Speed Heading
2026-05-07 19:00 50.90356 4.48430 121 ft 0 kts 155°
2026-05-07 19:28 50.90372 4.48418 118 ft 4 kts 153°
2026-05-07 19:28 50.90394 4.48395 117 ft 4 kts 122°
2026-05-07 19:28 50.90397 4.48373 118 ft 0 kts 65°
2026-05-07 19:32 50.90400 4.48377 118 ft 1 kts 52°
2026-05-07 19:32 50.90410 4.48389 116 ft 3 kts 37°
2026-05-07 19:32 50.90432 4.48410 120 ft 5 kts 31°
2026-05-07 19:33 50.90464 4.48451 117 ft 7 kts 52°
2026-05-07 19:33 50.90488 4.48532 118 ft 9 kts 62°
2026-05-07 19:33 50.90542 4.48591 121 ft 11 kts 18°
2026-05-07 19:33 50.90605 4.48662 120 ft 13 kts 62°
2026-05-07 19:34 50.90646 4.48808 117 ft 16 kts 66°
2026-05-07 19:34 50.90695 4.48987 120 ft 19 kts 68°
2026-05-07 19:34 50.90754 4.49190 120 ft 21 kts 64°
2026-05-07 19:34 50.90820 4.49411 121 ft 21 kts 66°
2026-05-07 19:35 50.90853 4.49524 121 ft 0 kts 65°
2026-05-07 19:37 50.90855 4.49532 121 ft 4 kts 65°
2026-05-07 19:38 50.90884 4.49634 122 ft 16 kts 66°
2026-05-07 19:38 50.90943 4.49807 120 ft 10 kts 45°
2026-05-07 19:38 50.91018 4.49897 119 ft 4 kts 24°
2026-05-07 19:38 50.91020 4.49898 120 ft 0 kts 24°
2026-05-07 19:39 50.91042 4.49914 119 ft 13 kts 24°
2026-05-07 19:39 50.91130 4.49893 119 ft 14 kts 297°
2026-05-07 19:39 50.91117 4.49814 118 ft 0 kts 249°
2026-05-07 19:40 50.91088 4.49711 120 ft 35 kts 243°
2026-05-07 19:40 50.90881 4.48993 121 ft 105 kts 245°
2026-05-07 19:40 50.90499 4.47667 122 ft 157 kts 245°
2026-05-07 19:40 50.90001 4.45918 357 ft 182 kts 246°
2026-05-07 19:41 50.89513 4.44020 926 ft 187 kts 255°
2026-05-07 19:41 50.89642 4.42037 1576 ft 185 kts 303°
2026-05-07 19:41 50.90630 4.40757 2112 ft 192 kts 335°
2026-05-07 19:41 50.91943 4.39907 2396 ft 216 kts 340°
2026-05-07 19:42 50.93432 4.39028 2785 ft 240 kts 340°
2026-05-07 19:42 50.95067 4.38068 3308 ft 258 kts 340°
2026-05-07 19:42 50.96767 4.37040 4143 ft 264 kts 337°
2026-05-07 19:42 50.98418 4.35714 5023 ft 268 kts 331°
2026-05-07 19:43 51.00037 4.34192 5899 ft 272 kts 328°
2026-05-07 19:43 51.01661 4.32590 6672 ft 278 kts 327°
2026-05-07 19:43 51.03300 4.30969 6952 ft 278 kts 328°
2026-05-07 19:43 51.04949 4.29355 7061 ft 278 kts 328°
2026-05-07 19:44 51.06612 4.27749 7609 ft 280 kts 328°
2026-05-07 19:44 51.08289 4.26148 8494 ft 282 kts 328°
2026-05-07 19:44 51.09985 4.24542 9342 ft 285 kts 328°
2026-05-07 19:44 51.11702 4.22919 10147 ft 289 kts 328°
2026-05-07 19:45 51.13460 4.21257 10492 ft 309 kts 328°
2026-05-07 19:45 51.15380 4.19443 10726 ft 331 kts 328°
2026-05-07 19:45 51.17336 4.17412 11281 ft 339 kts 322°
2026-05-07 19:45 51.19246 4.15162 11970 ft 344 kts 322°
2026-05-07 19:46 51.21181 4.12884 12677 ft 347 kts 322°
2026-05-07 19:46 51.23133 4.10581 13396 ft 351 kts 322°
2026-05-07 19:46 51.25158 4.08263 13933 ft 356 kts 327°
2026-05-07 19:46 51.27388 4.06517 14059 ft 358 kts 339°
2026-05-07 19:47 51.29808 4.05561 14089 ft 359 kts 351°
2026-05-07 19:47 51.32306 4.05360 14086 ft 360 kts 359°
2026-05-07 19:47 51.34807 4.05326 14087 ft 360 kts 358°
2026-05-07 19:47 51.37310 4.05283 14084 ft 360 kts 358°
2026-05-07 19:48 51.39779 4.05232 14086 ft 360 kts 358°
2026-05-07 19:48 51.42282 4.05176 14085 ft 360 kts 358°
2026-05-07 19:48 51.44783 4.05123 14085 ft 360 kts 358°
2026-05-07 19:48 51.47283 4.05330 14082 ft 360 kts
2026-05-07 19:49 51.49720 4.06281 14088 ft 361 kts 19°
2026-05-07 19:49 51.52024 4.07886 14081 ft 362 kts 24°
2026-05-07 19:49 51.54306 4.09592 14085 ft 362 kts 24°
2026-05-07 19:49 51.56592 4.11296 14081 ft 362 kts 24°
2026-05-07 19:50 51.58875 4.12989 14085 ft 362 kts 24°
2026-05-07 19:50 51.61160 4.14681 14084 ft 362 kts 24°
2026-05-07 19:50 51.63443 4.16372 14086 ft 362 kts 24°
2026-05-07 19:50 51.65728 4.18070 14089 ft 362 kts 24°
2026-05-07 19:51 51.68014 4.19773 14091 ft 362 kts 24°
2026-05-07 19:51 51.70294 4.21477 14082 ft 362 kts 24°
2026-05-07 19:51 51.72578 4.23185 14079 ft 362 kts 24°
2026-05-07 19:51 51.74864 4.24892 14086 ft 362 kts 24°
2026-05-07 19:52 51.77145 4.26596 14087 ft 361 kts 24°
2026-05-07 19:52 51.79425 4.28306 14088 ft 361 kts 24°
2026-05-07 19:52 51.81705 4.30020 14082 ft 361 kts 24°
2026-05-07 19:52 51.83984 4.31733 14088 ft 361 kts 24°
2026-05-07 19:53 51.86264 4.33449 14088 ft 361 kts 24°
2026-05-07 19:53 51.88541 4.35165 14088 ft 361 kts 24°
2026-05-07 19:53 51.90820 4.36886 14082 ft 361 kts 24°
2026-05-07 19:53 51.93100 4.38610 14078 ft 361 kts 24°
2026-05-07 19:54 51.95376 4.40331 14080 ft 361 kts 24°
2026-05-07 19:54 51.97652 4.42052 14084 ft 361 kts 24°
2026-05-07 19:54 51.99929 4.43777 14081 ft 361 kts 24°
2026-05-07 19:54 52.02203 4.45502 14088 ft 361 kts 24°
2026-05-07 19:55 52.04473 4.47226 14085 ft 360 kts 24°
2026-05-07 19:55 52.06745 4.48952 14082 ft 360 kts 24°
2026-05-07 19:55 52.09013 4.50680 14085 ft 360 kts 24°
2026-05-07 19:55 52.11282 4.52413 14080 ft 360 kts 24°
2026-05-07 19:56 52.13550 4.54148 14081 ft 360 kts 24°
2026-05-07 19:56 52.15823 4.55886 14077 ft 360 kts 24°
2026-05-07 19:56 52.18090 4.57622 14080 ft 360 kts 24°
2026-05-07 19:56 52.20358 4.59361 14085 ft 360 kts 24°
2026-05-07 19:57 52.22623 4.61098 14082 ft 360 kts 24°
2026-05-07 19:57 52.24898 4.62840 14082 ft 361 kts 24°
2026-05-07 19:57 52.27166 4.64578 14084 ft 360 kts 24°
2026-05-07 19:57 52.29439 4.66324 14083 ft 361 kts 24°
2026-05-07 19:58 52.31709 4.68071 14085 ft 361 kts 24°
2026-05-07 19:58 52.33980 4.69819 14085 ft 361 kts 24°
2026-05-07 19:58 52.36250 4.71570 14088 ft 361 kts 24°
2026-05-07 19:58 52.38515 4.73324 14086 ft 361 kts 24°
2026-05-07 19:59 52.40050 4.74514 14085 ft 361 kts 24°
2026-05-07 19:59 52.42320 4.76273 14087 ft 361 kts 24°
2026-05-07 19:59 52.44586 4.78031 14082 ft 360 kts 24°
2026-05-07 19:59 52.46850 4.79787 14081 ft 360 kts 24°
2026-05-07 20:00 52.49112 4.81543 14086 ft 359 kts 24°
2026-05-07 20:00 52.51370 4.83300 14091 ft 360 kts 25°
2026-05-07 20:00 52.53512 4.85430 14092 ft 361 kts 36°
2026-05-07 20:00 52.55368 4.88198 14092 ft 361 kts 47°
2026-05-07 20:01 52.56945 4.91413 14094 ft 362 kts 51°
2026-05-07 20:01 52.58499 4.94666 14090 ft 361 kts 51°
2026-05-07 20:01 52.60055 4.97910 14098 ft 362 kts 51°
2026-05-07 20:01 52.61612 5.01154 14094 ft 361 kts 51°
2026-05-07 20:02 52.63163 5.04396 14093 ft 361 kts 51°
2026-05-07 20:02 52.64697 5.07599 14096 ft 361 kts 51°
2026-05-07 20:02 52.66249 5.10844 14103 ft 360 kts 51°
2026-05-07 20:02 52.67799 5.14098 14101 ft 361 kts 52°
2026-05-07 20:03 52.69348 5.17360 14105 ft 361 kts 52°
2026-05-07 20:03 52.70896 5.20621 14098 ft 362 kts 52°
2026-05-07 20:03 52.72444 5.23883 14106 ft 361 kts 52°
2026-05-07 20:03 52.73833 5.27344 14407 ft 364 kts 62°
2026-05-07 20:04 52.74830 5.31199 15085 ft 367 kts 71°
2026-05-07 20:04 52.75693 5.35176 15748 ft 369 kts 71°
2026-05-07 20:04 52.76564 5.39187 16361 ft 373 kts 71°
2026-05-07 20:04 52.77440 5.43229 17005 ft 375 kts 71°
2026-05-07 20:05 52.78321 5.47304 17620 ft 379 kts 71°
2026-05-07 20:05 52.79208 5.51417 18235 ft 382 kts 71°
2026-05-07 20:05 52.80099 5.55559 18794 ft 385 kts 71°
2026-05-07 20:05 52.80999 5.59756 19311 ft 388 kts 71°
2026-05-07 20:06 52.81899 5.63972 19859 ft 391 kts 71°
2026-05-07 20:06 52.82806 5.68232 20364 ft 395 kts 71°
2026-05-07 20:06 52.83718 5.72531 20905 ft 397 kts 71°
2026-05-07 20:06 52.84636 5.76862 21432 ft 401 kts 71°
2026-05-07 20:07 52.85560 5.81226 21954 ft 404 kts 71°
2026-05-07 20:07 52.86489 5.85628 22490 ft 407 kts 71°
2026-05-07 20:07 52.87442 5.90049 23030 ft 409 kts 68°
2026-05-07 20:07 52.88628 5.94345 23547 ft 411 kts 65°
2026-05-07 20:08 52.89862 5.98631 23971 ft 414 kts 65°
2026-05-07 20:08 52.91124 6.02935 24384 ft 416 kts 64°
2026-05-07 20:08 52.92401 6.07255 24776 ft 419 kts 64°
2026-05-07 20:08 52.93687 6.11605 25158 ft 421 kts 64°
2026-05-07 20:09 52.94971 6.15971 25528 ft 423 kts 64°
2026-05-07 20:09 52.96258 6.20387 25895 ft 426 kts 65°
2026-05-07 20:09 52.97544 6.24826 26257 ft 428 kts 65°
2026-05-07 20:10 53.00125 6.33786 26979 ft 432 kts 65°
2026-05-07 20:10 53.01422 6.38295 27332 ft 434 kts 65°
2026-05-07 20:10 53.02725 6.42829 27675 ft 436 kts 65°
2026-05-07 20:10 53.04034 6.47392 28011 ft 439 kts 65°
2026-05-07 20:11 53.05347 6.51975 28338 ft 441 kts 65°
2026-05-07 20:11 53.06666 6.56593 28698 ft 443 kts 65°
2026-05-07 20:11 53.07987 6.61222 29037 ft 443 kts 66°
2026-05-07 20:11 53.09308 6.65863 29396 ft 444 kts 65°
2026-05-07 20:12 53.10632 6.70521 29659 ft 446 kts 65°
2026-05-07 20:12 53.11953 6.75173 30159 ft 443 kts 65°
2026-05-07 20:12 53.13267 6.79805 30605 ft 441 kts 65°
2026-05-07 20:12 53.14569 6.84401 31054 ft 438 kts 65°
2026-05-07 20:13 53.15857 6.88970 31503 ft 435 kts 65°
2026-05-07 20:13 53.17134 6.93516 31965 ft 432 kts 66°
2026-05-07 20:13 53.18384 6.97976 32429 ft 429 kts 66°
2026-05-07 20:13 53.19655 7.02524 32918 ft 425 kts 66°
2026-05-07 20:14 53.20883 7.06919 33398 ft 422 kts 66°
2026-05-07 20:14 53.22117 7.11340 33900 ft 418 kts 66°
2026-05-07 20:14 53.23339 7.15724 34353 ft 414 kts 66°
2026-05-07 20:14 53.24546 7.20061 34779 ft 409 kts 66°
2026-05-07 20:15 53.25734 7.24346 35208 ft 404 kts 66°
2026-05-07 20:15 53.26905 7.28584 35652 ft 399 kts 66°
2026-05-07 20:15 53.28065 7.32783 35905 ft 399 kts 66°
2026-05-07 20:15 53.29232 7.37008 36068 ft 401 kts 66°
2026-05-07 20:16 53.30403 7.41258 36230 ft 403 kts 66°
2026-05-07 20:16 53.31577 7.45525 36389 ft 405 kts 66°
2026-05-07 20:16 53.32754 7.49813 36541 ft 407 kts 66°
2026-05-07 20:16 53.33937 7.54129 36685 ft 409 kts 66°
2026-05-07 20:17 53.35124 7.58462 36837 ft 410 kts 66°
2026-05-07 20:17 53.36314 7.62820 36979 ft 412 kts 66°
2026-05-07 20:17 53.37503 7.67191 37092 ft 414 kts 66°
2026-05-07 20:18 53.39912 7.76087 37113 ft 424 kts 66°
2026-05-07 20:18 53.42387 7.85243 36551 ft 440 kts 66°
2026-05-07 20:18 53.43653 7.89944 35786 ft 444 kts 66°
2026-05-07 20:19 53.44929 7.94674 35034 ft 446 kts 66°
2026-05-07 20:19 53.46201 7.99387 34613 ft 440 kts 66°
2026-05-07 20:19 53.47457 8.04056 34110 ft 437 kts 66°
2026-05-07 20:19 53.48696 8.08680 33587 ft 432 kts 66°
2026-05-07 20:20 53.49915 8.13245 33131 ft 425 kts 66°
2026-05-07 20:20 53.51117 8.17758 32605 ft 421 kts 67°
2026-05-07 20:20 53.52306 8.22229 32083 ft 418 kts 66°
2026-05-07 20:20 53.53484 8.26671 31574 ft 414 kts 66°
2026-05-07 20:21 53.54652 8.31078 31075 ft 411 kts 66°
2026-05-07 20:21 53.55814 8.35470 30545 ft 410 kts 66°
2026-05-07 20:21 53.56967 8.39836 30025 ft 407 kts 66°
2026-05-07 20:21 53.58112 8.44179 29469 ft 404 kts 66°
2026-05-07 20:22 53.59246 8.48484 28934 ft 401 kts 66°
2026-05-07 20:22 53.60370 8.52766 28419 ft 398 kts 66°
2026-05-07 20:22 53.61487 8.57033 27768 ft 399 kts 66°
2026-05-07 20:22 53.62718 8.61248 26963 ft 404 kts 56°
2026-05-07 20:23 53.64606 8.64740 26185 ft 406 kts 37°
2026-05-07 20:23 53.67077 8.67035 25426 ft 408 kts 18°
2026-05-07 20:23 53.69809 8.68362 24701 ft 410 kts 14°
2026-05-07 20:23 53.72580 8.69549 23983 ft 411 kts 14°
2026-05-07 20:24 53.75363 8.70733 23200 ft 413 kts 14°
2026-05-07 20:24 53.78149 8.71922 22377 ft 414 kts 14°
2026-05-07 20:24 53.80912 8.73106 21586 ft 415 kts 14°
2026-05-07 20:24 53.83752 8.74330 20797 ft 416 kts 14°
2026-05-07 20:25 53.86522 8.75533 20044 ft 417 kts 14°
2026-05-07 20:25 53.89336 8.76758 19310 ft 417 kts 14°
2026-05-07 20:25 53.92144 8.77992 18583 ft 417 kts 14°
2026-05-07 20:25 53.94920 8.79407 17787 ft 418 kts 22°
2026-05-07 20:26 53.97407 8.81938 16981 ft 419 kts 39°
2026-05-07 20:26 53.99362 8.85589 16194 ft 418 kts 56°
2026-05-07 20:26 54.00611 8.90029 15447 ft 418 kts 73°
2026-05-07 20:26 54.01053 8.94881 14704 ft 416 kts 90°
2026-05-07 20:27 54.00662 8.99728 13984 ft 414 kts 107°
2026-05-07 20:27 53.99481 9.04158 13175 ft 412 kts 123°
2026-05-07 20:27 53.97633 9.07836 12380 ft 408 kts 136°
2026-05-07 20:27 53.95619 9.11080 11629 ft 389 kts 137°
2026-05-07 20:28 53.93710 9.14139 11088 ft 365 kts 137°
2026-05-07 20:28 53.91912 9.17017 10545 ft 346 kts 136°
2026-05-07 20:28 53.90205 9.19751 10010 ft 329 kts 136°
2026-05-07 20:28 53.88577 9.22358 9416 ft 316 kts 136°
2026-05-07 20:29 53.87009 9.24866 8835 ft 304 kts 136°
2026-05-07 20:29 53.85504 9.27267 8400 ft 292 kts 136°
2026-05-07 20:29 53.84039 9.29599 7976 ft 287 kts 135°
2026-05-07 20:29 53.82594 9.31903 7578 ft 284 kts 135°
2026-05-07 20:30 53.81233 9.34310 7174 ft 282 kts 128°
2026-05-07 20:30 53.80096 9.37005 6785 ft 280 kts 122°
2026-05-07 20:30 53.79024 9.39737 6464 ft 278 kts 122°
2026-05-07 20:30 53.77823 9.42271 6196 ft 275 kts 135°
2026-05-07 20:31 53.76292 9.44138 5936 ft 270 kts 150°
2026-05-07 20:31 53.74546 9.45237 5675 ft 268 kts 166°
2026-05-07 20:31 53.72697 9.45529 5417 ft 268 kts 181°
2026-05-07 20:31 53.70872 9.45002 5158 ft 264 kts 196°
2026-05-07 20:32 53.69139 9.44168 4903 ft 255 kts 186°
2026-05-07 20:32 53.67398 9.44123 4641 ft 247 kts 171°
2026-05-07 20:32 53.65746 9.44720 4375 ft 240 kts 164°
2026-05-07 20:32 53.64148 9.45388 4108 ft 233 kts 165°
2026-05-07 20:33 53.62602 9.46003 4000 ft 223 kts 165°
2026-05-07 20:33 53.61142 9.46559 4003 ft 209 kts 165°
2026-05-07 20:33 53.59729 9.47069 4004 ft 207 kts 165°
2026-05-07 20:33 53.58317 9.47571 4005 ft 207 kts 165°
2026-05-07 20:34 53.56910 9.48070 4002 ft 207 kts 165°
2026-05-07 20:34 53.55498 9.48569 4005 ft 207 kts 165°
2026-05-07 20:34 53.54089 9.49066 4002 ft 207 kts 165°
2026-05-07 20:34 53.52685 9.49595 4005 ft 206 kts 160°
2026-05-07 20:35 53.51386 9.50494 4009 ft 204 kts 148°
2026-05-07 20:35 53.50183 9.51727 3896 ft 201 kts 144°
2026-05-07 20:35 53.49007 9.53008 3601 ft 201 kts 144°
2026-05-07 20:35 53.47837 9.54294 3313 ft 200 kts 144°
2026-05-07 20:36 53.46698 9.55621 3065 ft 197 kts 134°
2026-05-07 20:36 53.46073 9.57592 3008 ft 194 kts 96°
2026-05-07 20:36 53.46201 9.59847 3010 ft 196 kts 78°
2026-05-07 20:36 53.46558 9.62062 3010 ft 197 kts 75°
2026-05-07 20:37 53.46953 9.64265 3011 ft 197 kts 74°
2026-05-07 20:37 53.47378 9.66450 3005 ft 195 kts 68°
2026-05-07 20:37 53.48019 9.68371 3000 ft 182 kts 57°
2026-05-07 20:37 53.48756 9.70026 3015 ft 173 kts 54°
2026-05-07 20:38 53.49508 9.71584 3032 ft 171 kts 53°
2026-05-07 20:38 53.50262 9.73112 3017 ft 169 kts 53°
2026-05-07 20:38 53.51016 9.74628 3007 ft 169 kts 53°
2026-05-07 20:38 53.51770 9.76140 3001 ft 169 kts 53°
2026-05-07 20:39 53.52526 9.77657 2919 ft 169 kts 53°
2026-05-07 20:39 53.53280 9.79168 2741 ft 167 kts 53°
2026-05-07 20:39 53.54012 9.80637 2530 ft 160 kts 53°
2026-05-07 20:39 53.54702 9.82020 2318 ft 149 kts 53°
2026-05-07 20:40 53.55348 9.83319 2124 ft 145 kts 53°
2026-05-07 20:40 53.55992 9.84613 1932 ft 144 kts 53°
2026-05-07 20:40 53.56630 9.85898 1736 ft 143 kts 53°
2026-05-07 20:40 53.57261 9.87169 1540 ft 143 kts 53°
2026-05-07 20:41 53.57898 9.88450 1345 ft 142 kts 52°
2026-05-07 20:41 53.58533 9.89729 1152 ft 142 kts 52°
2026-05-07 20:41 53.59160 9.90993 952 ft 139 kts 53°
2026-05-07 20:41 53.59777 9.92237 755 ft 138 kts 52°
2026-05-07 20:42 53.60394 9.93481 573 ft 139 kts 51°
2026-05-07 20:42 53.61012 9.94730 390 ft 139 kts 51°
2026-05-07 20:42 53.61633 9.95984 199 ft 139 kts 50°
2026-05-07 20:42 53.62246 9.97227 49 ft 132 kts 50°
2026-05-07 20:43 53.62684 9.98110 42 ft 54 kts 50°
2026-05-07 20:43 53.62734 9.98360 41 ft 16 kts 119°
2026-05-07 20:43 53.62701 9.98403 45 ft 2 kts 139°